Torna al catalogo

COSMOS 2251 DEB

AttivoLEO
NORAD 36550·DEBRIS·🇷🇺 Russia

Lanciato Jun 16, 1993 da Plesetsk Cosmodrome

Loading…

Prossimi Passaggi (prossime 24 ore)

TLE

AggiornatoSource: Space-Track

Epoca: Sep 14, 2026, 02:17 UTC

1 36550U 93036BDL 26257.09524980  .00000802  00000-0  32331-3 0  9994
2 36550  74.0437  54.2784 0077350  38.0839 322.5741 14.27952835885257

Traccia COSMOS 2251 DEB in tempo reale con AllMySat

Download on the App Store